Allentown, PA

3:02 AM EST on December 18, 2017 (GMT -0500)
Lehigh Valley International

Weather History for KABE - May, 2012

Change the Weather History Date:

Saturday, May 19, 2012

  Actual Average Record
Temperature  
Mean Temperature 65 °F 61 °F  
Max Temperature 83 °F 72 °F 97 °F (1962)
Min Temperature 46 °F 49 °F 32 °F (2009)
Degree Days  
Heating Degree Days 0 6  
Month to date heating degree days 64 148  
Since 1 July heating degree days 4495 5718  
Cooling Degree Days 0 1  
Month to date cooling degree days 19 13  
Year to date cooling degree days 28 18  
Growing Degree Days 14 (Base 50)    
Moisture  
Dew Point 46 °F    
Average Humidity 60    
Maximum Humidity 93    
Minimum Humidity 26    
Precipitation  
Precipitation 0.00 in 0.14 in 2.74 in (1988)
Month to date precipitation 2.77 2.44  
Year to date precipitation 10.76 15.12  
Snow  
Snow 0.00 in 0.00 in 0.00 in ()
Month to date snowfall 0.0 0.0  
Since 1 July snowfall 12.0 32.9  
Snow Depth 0.00 in    
Sea Level Pressure  
Sea Level Pressure 30.15 in    
Wind  
Wind Speed 4 mph (NE)    
Max Wind Speed 15 mph    
Max Gust Speed 18 mph    
Visibility 10 miles    
Events      
T = Trace of Precipitation, MM = Missing Value Source: NWS Daily Summary

Daily Weather History Graph

Daily Weather History Graph

Search for Another Location

Airport or City:

Trip Planner

Search our weather history database for the weather conditions in past years. The results will help you decide how hot, cold, wet, or windy it might be!

Date:

Astronomy

May. 19, 2012 Rise Set
Actual Time 5:40 AM EDT 8:16 PM EDT
Civil Twilight 5:09 AM EDT 8:47 PM EDT
Nautical Twilight 4:30 AM EDT 9:27 PM EDT
Astronomical Twilight 3:46 AM EDT 10:11 PM EDT
Moon 4:42 AM EDT (5/19) 7:18 PM EDT (5/19)
Length of Visible Light 15h 38m
Length of Day
14h 35m
Waning Crescent, 2% of the Moon is Illuminated
May 19
Waning Crescent
May 20
New
May 28
First Quarter
Jun 4
Full
Jun 11
Last Quarter

Hourly Weather History & Observations

Time (EDT) Temp. Dew Point Humidity Pressure Visibility Wind Dir Wind Speed Gust Speed Precip Events Conditions
12:51 AM 53.1 °F 42.1 °F 66% 30.19 in 10.0 mi Calm Calm - N/A   Clear
1:51 AM 50.0 °F 43.0 °F 77% 30.18 in 10.0 mi NNW 3.5 mph - N/A   Clear
2:51 AM 48.9 °F 43.0 °F 80% 30.17 in 10.0 mi NNW 4.6 mph - N/A   Clear
3:51 AM 48.9 °F 43.0 °F 80% 30.17 in 10.0 mi Calm Calm - N/A   Clear
4:51 AM 46.9 °F 44.1 °F 90% 30.17 in 10.0 mi NNW 3.5 mph - N/A   Clear
5:51 AM 46.0 °F 42.1 °F 86% 30.17 in 10.0 mi Calm Calm - N/A   Clear
6:51 AM 50.0 °F 46.0 °F 86% 30.18 in 10.0 mi Calm Calm - N/A   Clear
7:51 AM 55.0 °F 46.9 °F 74% 30.19 in 10.0 mi Calm Calm - N/A   Clear
8:51 AM 61.0 °F 46.9 °F 60% 30.18 in 10.0 mi Calm Calm - N/A   Clear
9:51 AM 66.0 °F 48.0 °F 52% 30.17 in 10.0 mi NW 3.5 mph - N/A   Clear
10:51 AM 72.0 °F 50.0 °F 46% 30.17 in 10.0 mi Calm Calm - N/A   Clear
11:22 AM 73.4 °F 48.2 °F 41% 30.16 in 10.0 mi ENE 6.9 mph - N/A   Clear
11:51 AM 75.0 °F 46.9 °F 37% 30.16 in 10.0 mi ENE 5.8 mph - N/A   Clear
12:51 PM 78.1 °F 46.0 °F 32% 30.14 in 10.0 mi NE 8.1 mph - N/A   Clear
1:51 PM 80.1 °F 45.0 °F 29% 30.13 in 10.0 mi East 6.9 mph - N/A   Clear
2:51 PM 81.0 °F 44.1 °F 27% 30.12 in 10.0 mi ENE 6.9 mph 18.4 mph N/A   Clear
3:51 PM 82.9 °F 44.1 °F 25% 30.10 in 10.0 mi East 9.2 mph - N/A   Clear
4:51 PM 82.0 °F 45.0 °F 27% 30.10 in 10.0 mi NE 10.4 mph - N/A   Clear
5:51 PM 82.0 °F 48.0 °F 30% 30.09 in 10.0 mi ENE 8.1 mph - N/A   Clear
6:51 PM 79.0 °F 48.0 °F 34% 30.09 in 10.0 mi NE 9.2 mph - N/A   Clear
7:51 PM 75.0 °F 48.9 °F 40% 30.10 in 10.0 mi ENE 3.5 mph - N/A   Clear
8:51 PM 75.9 °F 48.0 °F 37% 30.11 in 10.0 mi Calm Calm - N/A   Clear
9:51 PM 72.0 °F 46.9 °F 41% 30.14 in 10.0 mi NE 3.5 mph - N/A   Clear
10:51 PM 69.1 °F 46.9 °F 45% 30.16 in 10.0 mi East 3.5 mph - N/A   Clear
11:51 PM 62.1 °F 48.9 °F 62% 30.17 in 10.0 mi Calm Calm - N/A   Clear